STARLINK-4486 (53540 NORAD) Tracking and Keplerian Element Data

This shows tracking and keplerian element data for the satellite.

Feedback or suggestion? Click here.




ElementValue
Catalog53540
NameSTARLINK-4486
Epoch Orbit1506
Epoch Day324.59755123
Epoch Year2022
RAAN73.9873
Inclination53.2168
Eccentricity0.0001922
Argument of Perigee61.4676
Mean Anonmoly298.6509
Mean Motion15.08833443
Decay Rate1.28E-05
L11 53540U 22101P 22324.59755123 .00001280 00000+0 98509-4 0 9998
L22 53540 53.2168 73.9873 0001922 61.4676 298.6509 15.08833443 15065



Live tracking and technical data element details for STARLINK-4486 (NORAD 53540). STARLINK-4486 can be tracked NOW for your location showing map with azimuth and elevation plus other details from your city location.







IsCatalogInMostPopularTable: catalog: 53540, numindb: 3
Update: records affected: 1



GetName: 53540 STARLINK-4486

Hit Count: updated at: Thu, 08 Dec 2022 20:25:01 GMT